EW8277 Weather Reports


time (UTC)temp
F
wind
direction
speed
knots
gust
knots
rain 1hr
in
rain 24hr
in
rain mn
in
humidity
%
barometer
mb
20260503050055 44 154 0.0 0.0 0.00 0.00 0.00 3 1014.6
20260503044604 44 154 0.0 0.0 0.00 0.00 0.00 1 1014.5
20260503043028 45 154 0.0 0.0 0.00 0.00 0.00 1 1014.5
20260503041508 45 154 0.0 0.0 0.00 0.00 0.00 3 1014.4
20260503040003 45 154 0.0 0.0 0.00 0.00 0.00 4 1014.3
20260503034542 46 154 0.0 0.0 0.00 0.00 0.00 1 1014.1
20260503033039 46 154 0.0 0.0 0.00 0.00 0.00 4 1014.1
20260503031516 47 154 0.0 0.0 0.00 0.00 0.00 8 1014.0
20260503030012 47 154 0.0 0.0 0.00 0.00 0.00 12 1013.8
20260503024557 48 154 0.0 0.0 0.00 0.00 0.00 15 1013.6
20260503023052 48 154 0.0 0.0 0.00 0.00 0.00 20 1013.5
20260503021530 49 154 0.0 0.0 0.00 0.00 0.00 28 1013.3
20260503020034 49 154 0.0 0.0 0.00 0.00 0.00 36 1013.2
20260503014505 50 154 0.0 0.0 0.00 0.00 0.00 42 1013.1
20260503013001 51 154 0.0 0.0 0.00 0.00 0.00 49 1012.8
20260503011543 51 154 0.0 0.0 0.00 0.00 0.00 56 1012.7
20260503010039 52 154 0.0 0.0 0.00 0.00 0.00 62 1012.6
20260503004518 53 154 0.0 0.0 0.00 0.00 0.00 65 1012.5
20260503003027 54 154 0.0 0.0 0.00 0.00 0.00 69 1012.3
20260503001555 55 154 0.0 0.0 0.00 0.00 0.00 71 1012.1
20260503000051 56 154 0.0 0.0 0.00 0.00 0.00 72 1011.7
20260502234547 57 154 0.0 0.0 0.00 0.00 0.00 71 1011.5
20260502233025 58 154 0.0 0.0 0.00 0.00 0.00 69 1011.2
20260502231507 58 154 0.0 0.0 0.00 0.00 0.00 67 1011.1
20260502230006 59 154 0.0 0.0 0.00 0.00 0.00 66 1011.1
20260502224548 59 154 0.0 0.0 0.00 0.00 0.00 66 1011.0
20260502223100 58 154 0.0 0.0 0.00 0.00 0.00 66 1011.0
20260502221536 58 154 0.0 0.0 0.00 0.00 0.00 67 1011.0
20260502220040 58 20 0.0 0.0 0.00 0.00 0.00 65 1010.9
20260502214542 58 20 0.0 0.0 0.00 0.00 0.00 65 1010.9
20260502213037 58 20 0.0 0.0 0.00 0.00 0.00 65 1010.8
20260502211535 59 29 0.0 0.0 0.00 0.00 0.00 65 1010.7
20260502210029 59 46 0.0 0.0 0.00 0.00 0.00 67 1010.8
20260502204537 59 46 0.0 0.0 0.00 0.00 0.00 67 1010.8
20260502203041 59 59 0.0 0.0 0.00 0.00 0.00 67 1010.8
20260502201507 60 24 0.0 0.0 0.00 0.00 0.00 68 1010.8
20260502200003 60 71 0.0 0.0 0.00 0.00 0.00 66 1010.8
20260502194543 60 71 0.0 0.0 0.00 0.00 0.00 66 1010.9
20260502193037 61 72 0.0 0.0 0.00 0.00 0.00 63 1011.1
20260502191521 61 71 0.0 0.9 0.00 0.00 0.00 65 1011.1
20260502190020 61 45 0.0 0.0 0.00 0.00 0.00 65 1011.1
20260502184515 60 45 0.0 0.0 0.00 0.00 0.00 65 1011.2
20260502183008 60 45 0.0 0.0 0.00 0.00 0.00 66 1011.4
20260502181504 59 45 0.0 0.0 0.00 0.00 0.00 67 1011.7
20260502163037 57 42 0.0 0.0 0.00 0.00 0.00 68 1012.6
20260502161525 57 24 0.0 0.0 0.00 0.00 0.00 68 1013.2
20260502151559 56 63 0.0 0.0 0.00 0.00 0.00 66 1012.7
20260502123031 54 65 0.0 0.0 0.00 0.00 0.00 63 1012.4
20260502121524 54 77 0.0 0.0 0.00 0.00 0.00 57 1012.1
20260502114606 53 198 0.0 0.0 0.00 0.00 0.00 48 1012.0
20260502113109 53 136 0.0 0.0 0.00 0.00 0.00 47 1012.0
20260502111551 53 136 0.0 0.0 0.00 0.00 0.00 46 1011.9
20260502110047 54 136 0.0 0.0 0.00 0.00 0.00 46 1012.2
20260502104542 54 136 0.0 0.0 0.00 0.00 0.00 43 1012.3
20260502103039 54 136 0.0 0.0 0.00 0.00 0.00 31 1012.2
20260502101539 54 136 0.0 0.0 0.00 0.00 0.00 11 1012.3
20260502080108 53 136 0.0 0.0 0.00 0.00 0.00 2 1011.5
20260502070036 53 136 0.0 0.0 0.00 0.00 0.00 100 1011.3
20260502064530 52 136 0.0 0.0 0.00 0.00 0.00 100 1011.3
20260502063011 52 136 0.0 0.0 0.00 0.00 0.00 100 1011.5
20260502061505 52 136 0.0 0.0 0.00 0.00 0.00 100 1011.5
20260502060050 52 136 0.0 0.0 0.00 0.00 0.00 100 1011.4
20260502054539 53 136 0.0 0.0 0.00 0.00 0.00 100 1011.6
20260502053024 53 136 0.0 0.0 0.00 0.00 0.00 100 1011.8
20260502051527 53 136 0.0 0.0 0.00 0.00 0.00 1 1011.9